Hilo, HI

2:04 AM HST on August 18, 2017 (GMT -1000)
Hilo International

Weather History for PHTO - March, 2013

Change the Weather History Date:

Saturday, March 2, 2013

  Actual Average Record
Temperature  
Mean Temperature 74 °F 72 °F  
Max Temperature 79 °F 79 °F 86 °F (1989)
Min Temperature 68 °F 64 °F 57 °F (1983)
Degree Days  
Heating Degree Days 0 0  
Month to date heating degree days 0 0  
Since 1 July heating degree days 0 0  
Cooling Degree Days 9 6  
Month to date cooling degree days 18 12  
Year to date cooling degree days 390 382  
Growing Degree Days 24 (Base 50)    
Moisture  
Dew Point 59 °F    
Average Humidity 67    
Maximum Humidity 84    
Minimum Humidity 49    
Precipitation  
Precipitation 0.05 in 0.40 in 3.10 in (1996)
Month to date precipitation 0.05 0.79  
Year to date precipitation 31.55 19.61  
Snow  
Snow 0.00 in - - ()
Month to date snowfall 0.0  
Since 1 July snowfall 0.0  
Snow Depth 0.00 in    
Sea Level Pressure  
Sea Level Pressure 30.15 in    
Wind  
Wind Speed 8 mph (NNE)    
Max Wind Speed 22 mph    
Max Gust Speed 26 mph    
Visibility 10 miles    
Events Rain    
T = Trace of Precipitation, MM = Missing Value Source: NWS Daily Summary

Daily Weather History Graph

Daily Weather History Graph

Search for Another Location

Airport or City:

Trip Planner

Search our weather history database for the weather conditions in past years. The results will help you decide how hot, cold, wet, or windy it might be!

Date:

Astronomy

Mar. 02, 2013 Rise Set
Actual Time 6:38 AM HST 6:25 PM HST
Civil Twilight 6:16 AM HST 6:48 PM HST
Nautical Twilight 5:51 AM HST 7:13 PM HST
Astronomical Twilight 5:25 AM HST 7:39 PM HST
Moon 11:26 PM HST (3/2) 10:02 AM HST (3/2)
Length of Visible Light 12h 31m
Length of Day
11h 47m
Waning Gibbous, 72% of the Moon is Illuminated
Mar 2
Waning Gibbous
Mar 4
Last Quarter
Mar 11
New
Mar 19
First Quarter
Mar 26
Full

Hourly Weather History & Observations

Time (HST) Temp. Dew Point Humidity Pressure Visibility Wind Dir Wind Speed Gust Speed Precip Events Conditions
12:53 AM 70.0 °F 55.9 °F 61% 30.17 in 10.0 mi NE 11.5 mph - N/A   Clear
1:53 AM 70.0 °F 54.0 °F 57% 30.16 in 10.0 mi North 8.1 mph - N/A   Partly Cloudy
2:53 AM 68.0 °F 57.0 °F 68% 30.14 in 10.0 mi NW 5.8 mph - N/A   Mostly Cloudy
3:53 AM 70.0 °F 55.9 °F 61% 30.13 in 10.0 mi NNE 9.2 mph - 0.00 in   Overcast
4:53 AM 70.0 °F 55.0 °F 59% 30.14 in 10.0 mi North 4.6 mph - N/A   Mostly Cloudy
5:53 AM 71.1 °F 55.0 °F 57% 30.14 in 10.0 mi NNE 8.1 mph - N/A   Overcast
6:53 AM 71.1 °F 57.0 °F 61% 30.15 in 10.0 mi North 6.9 mph - N/A   Overcast
7:53 AM 72.0 °F 55.9 °F 57% 30.17 in 10.0 mi NE 8.1 mph - N/A   Overcast
8:53 AM 73.9 °F 54.0 °F 50% 30.19 in 10.0 mi North 5.8 mph - 0.00 in   Overcast
9:53 AM 75.0 °F 55.9 °F 51% 30.19 in 10.0 mi NE 6.9 mph - N/A   Mostly Cloudy
10:53 AM 69.1 °F 61.0 °F 75% 30.21 in 4.0 mi NE 11.5 mph - 0.00 in Rain Light Rain
11:07 AM 71.1 °F 61.0 °F 70% 30.21 in 8.0 mi NNW 12.7 mph - 0.00 in Rain Light Rain
11:53 AM 75.9 °F 57.0 °F 52% 30.18 in 10.0 mi NNW 10.4 mph - 0.00 in   Mostly Cloudy
12:53 PM 77.0 °F 59.0 °F 54% 30.14 in 10.0 mi NE 9.2 mph - N/A   Scattered Clouds
1:53 PM 75.0 °F 60.1 °F 60% 30.12 in 10.0 mi North 9.2 mph - N/A   Scattered Clouds
2:53 PM 78.1 °F 60.1 °F 54% 30.10 in 10.0 mi NE 11.5 mph - N/A   Scattered Clouds
3:53 PM 75.9 °F 62.1 °F 62% 30.09 in 10.0 mi North 9.2 mph - N/A   Mostly Cloudy
4:53 PM 72.0 °F 62.1 °F 71% 30.09 in 10.0 mi Variable 3.5 mph - 0.00 in   Overcast
5:53 PM 71.1 °F 62.1 °F 73% 30.11 in 10.0 mi West 4.6 mph - 0.00 in Rain Light Rain
6:53 PM 70.0 °F 63.0 °F 78% 30.13 in 10.0 mi Variable 3.5 mph - 0.05 in   Overcast
7:53 PM 70.0 °F 64.0 °F 81% 30.15 in 10.0 mi WNW 3.5 mph - N/A   Overcast
8:42 PM 70.0 °F 63.0 °F 78% 30.17 in 10.0 mi ENE 8.1 mph - N/A   Mostly Cloudy
8:53 PM 70.0 °F 63.0 °F 78% 30.17 in 10.0 mi ENE 8.1 mph - N/A   Mostly Cloudy
9:53 PM 70.0 °F 62.1 °F 76% 30.19 in 10.0 mi ENE 11.5 mph - N/A   Overcast
10:53 PM 70.0 °F 61.0 °F 73% 30.19 in 10.0 mi ENE 9.2 mph - N/A   Partly Cloudy
11:53 PM 70.0 °F 59.0 °F 68% 30.20 in 10.0 mi NE 11.5 mph - N/A   Overcast